FENGYUN1
1 25730U 99025A 11096.92659498 .00001211 00000-0 72821-3 0 03016
2 25730 098.8141 059.7014 0023183 147.7791 212.4794 14.08571302613032
OKEAN-0
1 25860U 99039A 11096.94079695 .00000608 00000-0 10042-3 0 02758
2 25860 097.8761 065.3781 0000690 079.8992 280.2292 14.73744927630169
NOAA-16
1 26536U 00055A 11096.82218115 -.00000008 00000-0 20930-4 0 02526
2 26536 099.1465 125.8946 0010026 229.8725 130.1540 14.12606846543281
NOAA-17
1 27453U 02032A 11096.73041618 .00000240 00000-0 12195-3 0 02467
2 27453 098.3874 139.6953 0011690 004.0351 356.0928 14.24254707456484
NOAA-18
1 28654U 05018A 11096.78731743 .00000199 00000-0 13453-3 0 07273
2 28654 098.9898 047.7843 0013739 309.0424 050.9553 14.11455370302852
NOAA-19
1 33591U 09005A 11096.76878348 .00000075 00000-0 65915-4 0 09209
2 33591 098.8224 038.1423 0013994 174.6544 185.4806 14.11147067111315
HUBBLE
1 20580U 90037B 11097.18782763 .00001628 00000-0 11100-3 0 7423
2 20580 028.4681 120.2080 0003163 099.6331 260.4775 15.01261249948972
ISS
1 25544U 98067A 11097.75640206 .00060054 00000-0 43276-3 0 1507
2 25544 051.6442 162.3701 0002499 086.9408 011.1115 15.72967989709811
CO-58
1 28895U 05043F 11097.61661347 .00000778 00000-0 17098-3 0 8423
2 28895 097.9768 336.6958 0019018 083.1139 277.2220 14.60053366289942
FALCON
1 30776U 07006E 11096.97235591 .00004337 00000-0 30760-3 0 00766
2 30776 035.4296 059.9176 0000440 235.8764 124.1922 15.04341976224317
MAST
1 31126U 07012K 11096.72876688 .00000550 00000-0 13386-3 0 01347
2 31126 097.9017 127.9742 0095076 033.8133 326.9074 14.53708048210709
CAPE1
1 31130U 07012P 11096.64815094 .00000794 00000-0 19230-3 0 01475
2 31130 097.9070 124.7732 0103360 044.1741 316.7672 14.52336200210250
COMPASS
1 32787U 08021E 11096.65993414 .00002039 00000-0 26137-3 0 09554
2 32787 097.8538 161.7932 0016590 052.3855 307.8861 14.82264089158963
AAUSAT2
1 32788U 08021F 11096.83487748 .00002450 00000-0 31147-3 0 09445
2 32788 097.8539 162.1674 0016357 052.8893 307.3810 14.82440365159009
DO-64
1 32789U 08021G 11097.67487327 .00003879 00000-0 48482-3 0 9606
2 32789 097.8635 163.8672 0016150 049.4506 310.8147 14.82813182159134
CO-66
1 32791U 08021J 11096.18958435 .00001868 00000-0 24166-3 0 09459
2 32791 097.8542 161.2938 0016948 053.3374 306.9384 14.81983142158842
RS-30
1 32953U 08025A 11097.71967981 .00000010 00000-0 00000 0 0 6181
2 32953 082.5029 206.5212 0019375 176.9854 183.1351 12.43011501130333
TACSAT-3
1 35001U 09028A 11096.83340053 .00030327 00000-0 59235-3 0 5573
2 35001 040.4546 245.3815 0022333 036.5519 323.6818 15.46507034106029
PHARMSAT
1 35002U 09028B 11096.78944557 .00026938 00000-0 52581-3 0 5173
2 35002 040.4705 243.1395 0025674 039.4082 320.8592 15.46481642106040
HAWKSAT1
1 35003U 09028C 11097.74225018 .00090130 00000-0 11965-2 0 5743
2 35003 040.4566 217.4780 0022504 072.4670 287.8602 15.56850003106414
CP6
1 35004U 09028D 11097.67282457 .00111248 00000-0 12936-2 0 5783
2 35004 040.4563 212.3830 0021632 078.9102 281.4144 15.60274916106457
METEOR-M
1 35865U 09049A 11097.70963162 .00000176 00000-0 10000-3 0 2587
2 35865 098.7109 153.7287 0001862 218.9964 141.1079 14.21834335 80579
RS-38
1 35869U 09049E 11097.71823386 .00000177 00000-0 10000-3 0 2654
2 35869 098.7100 153.7767 0003985 228.4938 131.5889 14.22003542 80584
